Terug naar catalogus

COSMOS 643

ActiefMilitairLEO
NORAD 7267·PAYLOAD·🇷🇺 Russia

Gelanceerd Apr 23, 1974 vanaf Plesetsk Cosmodrome

Loading…

Volgende Passages (komende 24 uur)

TLE

VersSource: Space-Track

Epoch: Sep 14, 2026, 13:15 UTC

1 07267U 74024C   26257.55251227  .00000001  00000-0  98348-4 0  9997
2 07267  74.0223 355.2512 0083070 267.3771 102.3941 12.61593796412901

Volg COSMOS 643 in realtime met AllMySat

Download on the App Store